星链-33934 (STARLINK-33934)

导读

STARLINK-33934是美国SpaceX公司星链(Starlink)项目的卫星,于2025年5月28日由美国发射升空。作为星链星座的一员,它旨在为全球提供低延迟、高速率的卫星互联网服务,覆盖偏远地区,补充地面网络覆盖不足,进一步扩充星链星座的服务能力,推动全球互联网络覆盖的完善。

基本信息
目录编号:
64187
目录名称:
STARLINK-33934
国际标识:
2025-113T
轨道中心:
EARTH
卫星名称:
星链-33934
卫星全名:
星链-33934 (STARLINK-33934)
卫星状态:
在轨 (已飞行464 天)
发射日期:
2025-05-28 UTC
国别 :
美国 (US)
星等 :
--
轨道信息
数据来源 国际轨道数据
星历时间: 2026-09-01T23:09:40+0800
2天前
查看轨道信息
半长轴: 6843.333km
偏心率: 0.0001147
轨道倾角: 53.162°
近地点辐角 94.817°
升交点赤经 353.826°
平近点角 265.297°
近地点: 464.411km
远地点: 465.981km
周期: 93.899分钟
每日圈数: 15.335617
详细信息
固有亮度:
5
最大亮度:
2.5
卫星平台:
Starlink V1.0
覆盖范围:
全球
运营商:
太空探索技术公司
运营商所在国:
美国
制造商(研发单位):
太空探索技术公司
制造商所在国:
美国
使用方式:
暂无
卫星简介
Starlink 计划是 SpaceX 推出的全球卫星互联网项目,通过发射低轨道卫星,为全球尤其是偏远地区提供高速、低延迟的互联网服务。自 2019 年起,Starlink 已部署数千颗卫星,旨在缩小全球数字鸿沟,推动互联网普及。该项目还为军事、航空等行业提供通信支持,带来广泛经济效益。
2D轨道图
3D轨道图
轨道高度分析图
轨道倾角分析图
轨道综合分析图
查看轨道综合分析图
交会数据列表
事件ID 空间交会对象 最接近时刻(TCA) 交会距离 交会风险概率(CRP) 交会风险指数(CRI) 操作
CDM_260904-190005-896806-418721
2026-09-04T
19:00:03+0000
1.498 km
极远距离
5.909827E-6 低风险 0.5
CDM_260830-125904-780006-418721
2026-08-30T
12:59:34+0000
1.878 km
极远距离
2.909253E-6 低风险 0.44
CDM_260827-200006-418706-629521
2026-08-27T
20:00:01+0000
1.936 km
极远距离
1.889076E-6 低风险 0.41
CDM_260903-091206-323806-418723
2026-09-03T
09:12:19+0000
2.458 km
极远距离
1.788207E-6 低风险 0.4
CDM_260903-220706-418706-803021
2026-09-03T
22:07:40+0000
2.497 km
极远距离
1.724265E-6 低风险 0.4
CDM_260903-052506-303506-418723
2026-09-03T
05:25:20+0000
2.492 km
极远距离
1.568022E-6 低风险 0.39
CDM_260830-115406-418706-903222
2026-08-30T
11:54:59+0000
2.517 km
极远距离
1.48558E-6 低风险 0.38
CDM_260830-102106-418706-921321
2026-08-30T
10:21:19+0000
2.620 km
极远距离
1.449617E-6 低风险 0.38
CDM_260903-025006-418706-822121
2026-09-03T
02:50:36+0000
2.760 km
极远距离
1.430849E-6 低风险 0.38
CDM_260903-202706-418706-788622
2026-09-03T
20:27:57+0000
2.861 km
极远距离
1.413658E-6 低风险 0.38